Vorticity
13 13 15 12 9 10 9 13 11 14 12 13 16 11 10 7 6 14 33 35 30 10 8 15 3 -3 -10 48 0 14 3 38 -18 12 13 15 11 16 18 13 7 15 24 19 -17 31 1 -1 12 16 34 11 -6 -3
14 13 11 11 8 13 11 15 14 15 12 8 8 11 32 35 27 24 12 -2 31 20 26 17 16 13 16 7 -30 -15 3 16 47 26 12 3 3 -0 6 35 6 21 0 13 -21 8 12 23 -0 4 12 20 12 56
13 12 9 12 12 15 13 13 9 7 11 22 36 28 11 10 15 26 1 -3 10 6 14 15 15 9 0 18 1 -18 5 3 -4 -6 7 -5 12 11 38 10 21 6 4 22 3 -0 -2 -10 -1 -1 25 4 26 10
10 13 15 14 12 13 8 6 16 26 24 20 17 9 14 13 10 14 21 8 -5 14 14 9 15 12 17 16 14 20 17 13 -1 -18 -7 5 2 -9 -9 -27 -1 3 11 12 23 14 18 10 14 -21 -4 7 -8 -4
13 14 12 13 8 7 24 25 21 18 20 24 14 11 13 8 9 12 13 19 1 -9 7 9 10 9 3 -9 -13 -20 -20 -10 -3 4 6 -5 -1 11 -3 15 19 14 17 23 3 8 14 25 22 6 19 19 11 8
13 12 10 7 28 26 18 19 21 19 18 22 32 31 13 8 11 8 9 15 10 15 -4 -4 5 24 4 43 58 52 51 62 30 19 8 13 25 25 14 25 10 27 39 31 13 20 13 6 26 15 16 21 17 27
12 6 15 24 17 27 22 12 11 13 20 21 19 18 22 27 33 37 36 32 41 51 53 51 29 7 1 13 11 11 17 26 37 41 35 33 47 13 19 17 41 27 28 19 23 19 10 -8 13 1 11 21 7 17
8 16 18 26 16 8 7 9 8 7 5 3 5 8 11 17 13 7 9 15 9 4 9 6 3 10 7 9 10 12 22 13 18 19 29 30 28 17 23 42 16 23 16 1 5 12 -1 7 5 -13 12 15 9 6
15 23 21 11 6 4 1 3 4 2 1 2 5 12 14 1 -2 3 5 7 7 6 6 12 11 10 9 11 20 3 10 20 12 15 18 18 16 17 28 26 23 40 35 20 18 0 25 27 -14 15 13 7 11 8
25 19 8 4 5 0 3 9 3 11 8 7 5 8 4 -2 5 2 1 2 3 -1 5 -4 4 16 11 -1 24 16 3 19 32 23 17 11 28 36 22 10 -12 -4 20 -15 13 4 23 0 17 23 20 20 12 4
15 5 3 9 3 11 13 9 6 7 8 7 7 8 8 8 4 5 6 9 -1 4 -2 7 5 11 5 13 20 -1 22 25 19 10 30 41 18 11 6 -5 -3 14 9 7 1 8 1 9 25 -1 7 8 11 7
4 3 5 16 14 8 8 7 4 12 13 10 16 16 15 14 8 8 9 4 18 12 18 12 16 21 -1 14 27 3 10 10 3 20 23 11 4 7 12 6 7 11 11 11 16 3 26 24 14 1 -1 12 7 14
8 24 15 8 4 9 4 5 8 11 8 8 11 8 10 11 5 7 6 11 42 14 12 16 19 22 5 13 10 12 1 9 5 13 15 9 -6 2 3 2 4 12 12 11 0 18 20 9 9 12 10 10 9 2
15 10 6 5 10 5 6 11 17 18 10 -1 11 10 7 3 27 26 17 21 13 8 5 18 13 15 19 13 8 -11 10 9 39 23 10 13 -1 3 5 15 20 22 16 -3 6 9 11 12 4 1 -2 22 8 16
8 7 6 8 3 10 12 18 26 18 12 10 12 2 13 13 1 4 12 26 4 23 18 20 5 9 9 6 7 12 5 9 15 6 11 22 14 16 15 15 15 16 -2 6 7 6 6 7 8 21 11 19 18 13
6 3 10 9 4 7 26 15 19 4 6 18 16 7 8 10 19 14 23 7 12 16 15 8 12 9 9 9 8 9 8 16 19 23 14 13 9 11 14 8 9 8 9 9 5 11 7 5 -2 5 23 17 11 10
9 7 4 12 7 30 23 11 16 19 6 15 5 15 20 10 -1 -2 12 10 9 18 9 5 10 10 9 8 9 19 1 15 15 10 14 10 4 10 11 8 8 9 11 13 9 11 9 8 14 14 20 8 2 9
5 13 5 13 6 30 29 21 9 6 6 7 0 3 13 20 24 26 21 26 20 9 5 9 4 9 14 15 5 8 4 11 5 8 10 14 11 11 10 10 11 13 12 10 9 10 14 19 23 18 9 6 6 10
8 12 4 10 16 18 6 12 15 5 5 3 -0 -3 3 14 18 21 24 19 11 8 10 11 13 3 3 1 2 9 14 8 3 1 12 19 15 15 11 8 9 9 9 11 12 13 13 20 11 4 3 2 4 0
4 8 11 7 8 13 11 7 8 7 -2 4 10 5 -3 9 13 11 5 7 7 6 8 8 5 2 3 4 4 5 6 12 15 18 14 10 9 12 12 13 15 17 19 22 23 13 16 4 1 3 -0 2 0 1
7 4 7 6 9 7 7 6 6 7 8 14 11 7 9 16 13 15 11 11 6 4 5 5 4 3 2 5 8 6 15 14 10 9 13 16 18 21 22 20 20 18 16 15 17 20 22 6 12 7 6 2 2 -2
16 11 5 2 4 8 8 10 11 12 11 10 12 11 12 13 12 13 18 17 13 9 9 9 12 12 13 13 15 10 13 15 15 20 15 21 21 19 20 17 16 12 11 15 16 11 6 6 7 5 3 3 9 16
21 17 18 14 10 6 6 7 7 6 6 7 8 9 17 18 17 13 11 12 14 16 15 14 15 16 10 9 12 17 19 20 20 14 17 7 3 9 12 12 12 13 14 16 17 19 22 22 21 19 13 7 9 10
15 16 19 19 20 19 15 10 6 5 6 9 12 14 14 16 17 14 8 8 11 10 12 10 9 11 12 17 22 22 23 20 14 13 12 13 13 17 13 13 11 10 10 9 8 9 9 9 9 8 9 9 10 11
10 9 11 17 15 14 13 17 19 16 14 8 9 11 11 16 15 17 12 8 9 10 10 8 11 18 19 14 7 4 4 7 5 5 7 6 7 7 9 9 11 11 12 11 11 11 12 11 11 11 10 9 9 9
4 5 11 14 14 13 14 15 17 15 11 11 11 13 16 17 16 16 12 7 6 9 15 16 17 12 9 11 14 14 11 9 7 4 4 3 3 3 4 6 6 5 4 5 5 5 5 5 4 4 5 7 8 8
2 0 -1 -0 0 2 6 11 18 21 11 12 17 16 16 16 17 18 19 19 21 18 16 15 15 12 9 7 4 3 2 4 4 3 5 7 7 7 5 5 6 8 9 10 9 6 6 7 7 9 10 10 11 14
6 5 4 2 1 -0 -1 0 2 12 20 17 16 15 17 13 16 13 11 11 10 10 7 6 4 3 3 1 1 3 5 5 6 5 5 5 5 7 7 6 4 5 4 2 8 8 2 5 11 13 16 20 25 25
17 15 13 11 8 6 3 2 2 3 2 8 17 16 17 17 15 5 5 4 5 5 4 2 2 2 2 4 5 5 7 8 8 6 3 3 4 3 2 1 1 4 5 12 12 7 10 15 24 29 26 21 17 13
18 21 22 20 17 16 12 12 11 6 3 2 0 7 21 16 21 3 1 3 1 2 1 1 2 2 2 2 2 1 1 7 8 2 -1 -0 2 4 8 9 9 11 15 13 12 20 28 24 17 14 12 10 9 11
23 22 14 9 16 25 22 18 14 11 12 9 2 2 3 11 18 14 2 -2 -1 0 1 -1 -1 0 1 3 3 5 6 8 7 3 1 4 9 11 14 10 12 12 16 22 22 17 13 11 9 9 11 13 14 14
17 20 22 23 24 20 6 10 25 26 19 14 13 12 5 1 3 10 8 10 9 5 4 3 -1 -0 2 4 5 6 7 4 2 3 8 9 11 12 12 12 16 23 22 14 10 12 13 14 15 15 14 14 13 13
14 17 18 21 25 26 24 19 16 7 5 26 30 19 15 14 13 6 2 3 3 2 3 3 4 4 4 2 2 4 4 7 11 15 15 13 14 14 17 20 18 13 13 16 15 13 13 13 13 11 10 9 9 10
Height
5400 5401 5403 5405 5406 5407 5408 5409 5410 5411 5412 5413 5414 5415 5416 5417 5420 5422 5425 5426 5429 5433 5438 5442 5447 5451 5456 5458 5465 5465 5470 5475 5477 5480 5482 5484 5488 5491 5493 5498 5500 5502 5502 5505 5505 5506 5511 5512 5514 5516 5517 5520 5520 5522
5394 5396 5397 5399 5400 5401 5402 5402 5403 5404 5404 5405 5406 5406 5407 5408 5411 5415 5420 5423 5427 5430 5433 5437 5442 5447 5449 5455 5458 5460 5464 5466 5467 5469 5473 5474 5479 5483 5487 5487 5490 5493 5496 5496 5498 5498 5500 5502 5505 5507 5507 5508 5512 5514
5389 5390 5392 5393 5394 5395 5395 5396 5396 5397 5397 5397 5397 5400 5402 5404 5407 5410 5415 5419 5422 5424 5428 5432 5435 5439 5443 5448 5451 5454 5459 5460 5460 5461 5464 5466 5469 5473 5477 5479 5480 5483 5484 5485 5486 5491 5491 5494 5501 5501 5502 5503 5507 5505
5384 5385 5386 5387 5388 5389 5390 5390 5390 5390 5390 5391 5393 5396 5399 5401 5404 5407 5410 5414 5418 5419 5422 5428 5433 5436 5440 5445 5449 5452 5452 5455 5455 5455 5454 5455 5460 5464 5467 5468 5472 5475 5472 5475 5476 5480 5484 5487 5491 5493 5495 5497 5498 5497
5379 5381 5382 5383 5384 5384 5384 5385 5385 5386 5386 5387 5389 5392 5396 5399 5401 5404 5407 5411 5413 5416 5419 5423 5428 5432 5436 5439 5442 5443 5443 5443 5443 5443 5444 5445 5447 5451 5453 5454 5454 5462 5463 5464 5468 5473 5474 5477 5482 5481 5485 5490 5492 5494
5376 5378 5379 5380 5380 5380 5382 5383 5384 5385 5386 5386 5387 5389 5393 5396 5398 5402 5405 5407 5409 5410 5416 5420 5424 5425 5428 5429 5429 5428 5427 5426 5425 5427 5429 5429 5434 5437 5436 5438 5445 5450 5448 5453 5457 5462 5466 5469 5473 5477 5481 5483 5484 5486
5374 5376 5377 5377 5379 5381 5383 5385 5386 5387 5388 5389 5389 5391 5393 5395 5397 5399 5402 5404 5405 5408 5412 5415 5420 5423 5425 5425 5425 5423 5420 5417 5414 5414 5415 5418 5423 5427 5424 5425 5439 5435 5437 5444 5449 5455 5459 5464 5468 5472 5474 5476 5477 5479
5372 5374 5375 5378 5381 5383 5386 5388 5389 5391 5392 5393 5395 5396 5397 5399 5401 5403 5405 5407 5410 5413 5416 5419 5421 5422 5422 5422 5420 5418 5416 5413 5412 5410 5411 5413 5415 5415 5415 5426 5428 5430 5434 5439 5445 5450 5457 5460 5464 5466 5469 5469 5471 5473
5370 5372 5376 5379 5383 5386 5388 5390 5392 5394 5395 5397 5398 5400 5402 5405 5406 5407 5408 5410 5412 5415 5417 5419 5420 5420 5420 5419 5417 5416 5413 5412 5411 5410 5411 5410 5413 5414 5419 5421 5424 5429 5434 5440 5445 5449 5453 5455 5459 5461 5463 5465 5466 5469
5370 5374 5378 5381 5385 5388 5390 5392 5394 5396 5397 5398 5400 5403 5406 5407 5408 5409 5411 5412 5413 5415 5417 5418 5418 5417 5417 5417 5414 5415 5413 5410 5409 5411 5409 5411 5413 5415 5418 5422 5426 5430 5435 5438 5443 5448 5450 5452 5454 5456 5458 5461 5464 5467
5372 5376 5380 5383 5386 5388 5391 5393 5395 5396 5397 5398 5401 5404 5407 5408 5409 5409 5410 5411 5412 5414 5416 5416 5415 5416 5416 5415 5414 5415 5413 5411 5410 5411 5411 5413 5417 5420 5422 5425 5428 5431 5435 5438 5441 5444 5447 5449 5451 5453 5456 5458 5461 5462
5375 5378 5381 5384 5387 5390 5392 5393 5395 5396 5398 5400 5402 5403 5405 5406 5406 5407 5406 5408 5411 5412 5414 5413 5413 5413 5414 5414 5414 5415 5414 5413 5413 5414 5415 5418 5420 5424 5427 5429 5431 5434 5437 5439 5441 5443 5445 5446 5448 5451 5453 5455 5456 5458
5377 5379 5383 5385 5388 5390 5391 5393 5395 5396 5397 5398 5400 5401 5403 5403 5402 5404 5406 5408 5408 5410 5411 5411 5412 5413 5414 5413 5415 5415 5415 5415 5415 5418 5419 5421 5423 5425 5426 5428 5430 5432 5435 5437 5439 5441 5442 5444 5446 5449 5450 5451 5453 5454
5378 5381 5384 5387 5388 5389 5391 5392 5393 5395 5397 5399 5400 5402 5402 5401 5402 5403 5405 5407 5407 5407 5407 5409 5411 5412 5413 5413 5414 5415 5417 5416 5417 5417 5419 5421 5422 5423 5424 5426 5428 5430 5433 5436 5438 5440 5441 5443 5444 5446 5447 5448 5449 5450
5381 5384 5386 5387 5388 5389 5389 5390 5392 5394 5396 5398 5400 5400 5401 5402 5402 5403 5405 5405 5406 5406 5407 5409 5411 5412 5413 5414 5414 5415 5416 5416 5417 5419 5421 5421 5420 5421 5422 5424 5426 5429 5431 5433 5434 5436 5438 5440 5442 5443 5443 5444 5444 5446
5383 5385 5386 5387 5387 5387 5388 5389 5392 5394 5395 5397 5399 5400 5400 5400 5401 5402 5402 5404 5405 5406 5407 5409 5410 5412 5413 5413 5415 5415 5415 5416 5416 5417 5417 5418 5418 5419 5421 5423 5425 5427 5428 5430 5432 5434 5435 5437 5438 5439 5439 5440 5441 5442
5383 5385 5387 5387 5387 5386 5388 5389 5392 5394 5395 5397 5399 5398 5398 5398 5399 5399 5400 5402 5404 5406 5408 5409 5410 5412 5413 5413 5414 5414 5415 5415 5415 5415 5416 5416 5417 5418 5420 5421 5423 5424 5426 5427 5428 5430 5431 5432 5433 5434 5435 5436 5437 5438
5384 5385 5387 5387 5387 5387 5387 5389 5392 5394 5396 5396 5398 5399 5398 5397 5396 5396 5397 5399 5402 5404 5406 5408 5409 5410 5411 5412 5413 5414 5413 5414 5414 5414 5415 5415 5416 5417 5418 5419 5420 5420 5421 5422 5423 5424 5425 5426 5427 5429 5431 5433 5434 5434
5385 5385 5386 5387 5387 5388 5389 5391 5393 5394 5395 5396 5396 5397 5397 5397 5397 5396 5397 5399 5401 5403 5405 5406 5407 5409 5410 5411 5411 5411 5411 5412 5412 5412 5411 5411 5411 5412 5413 5413 5414 5415 5415 5416 5417 5419 5420 5422 5424 5426 5427 5428 5428 5428
5384 5385 5386 5387 5388 5389 5391 5392 5393 5394 5395 5396 5396 5396 5396 5396 5397 5397 5398 5399 5401 5402 5403 5404 5406 5407 5407 5408 5408 5409 5408 5408 5407 5406 5406 5406 5406 5406 5406 5406 5407 5407 5408 5409 5411 5413 5415 5417 5419 5420 5422 5422 5423 5423
5382 5384 5385 5386 5387 5389 5390 5391 5391 5392 5393 5393 5393 5394 5394 5394 5395 5396 5397 5398 5399 5400 5401 5402 5403 5403 5404 5404 5405 5405 5404 5403 5403 5402 5401 5401 5400 5400 5400 5400 5401 5403 5405 5406 5407 5409 5410 5412 5414 5414 5416 5416 5417 5418
5380 5382 5383 5384 5385 5386 5387 5388 5389 5389 5390 5390 5390 5390 5391 5391 5391 5392 5393 5394 5395 5396 5397 5398 5399 5399 5400 5400 5400 5400 5399 5398 5398 5398 5397 5397 5397 5397 5398 5399 5400 5401 5402 5403 5404 5405 5407 5408 5410 5411 5411 5411 5411 5411
5378 5378 5379 5380 5381 5382 5385 5384 5385 5385 5386 5386 5386 5386 5386 5387 5387 5387 5388 5389 5390 5391 5392 5394 5394 5395 5395 5396 5396 5395 5395 5395 5395 5395 5396 5396 5396 5397 5397 5398 5398 5399 5400 5400 5401 5402 5403 5403 5404 5405 5404 5404 5404 5403
5376 5376 5376 5376 5377 5378 5379 5379 5380 5381 5381 5381 5381 5381 5381 5381 5382 5383 5384 5386 5387 5388 5388 5390 5391 5391 5391 5392 5392 5392 5392 5393 5393 5394 5394 5395 5395 5396 5396 5396 5396 5397 5397 5397 5397 5398 5398 5399 5399 5398 5397 5397 5395 5393
5376 5375 5375 5374 5374 5374 5374 5374 5374 5375 5375 5375 5375 5376 5376 5376 5377 5378 5380 5381 5383 5384 5385 5386 5386 5387 5388 5389 5390 5390 5391 5391 5392 5392 5393 5393 5393 5394 5394 5394 5394 5394 5394 5394 5393 5393 5393 5392 5391 5390 5389 5387 5386 5383
5373 5373 5372 5371 5370 5370 5369 5369 5368 5369 5369 5369 5370 5370 5370 5370 5372 5374 5375 5377 5378 5379 5380 5381 5383 5384 5385 5386 5387 5388 5389 5390 5390 5391 5391 5391 5391 5391 5391 5391 5391 5391 5390 5389 5388 5387 5386 5384 5383 5381 5379 5377 5375 5373
5367 5368 5368 5367 5366 5365 5365 5364 5363 5363 5363 5364 5365 5365 5365 5366 5368 5370 5371 5372 5373 5375 5377 5378 5380 5381 5383 5384 5385 5386 5387 5387 5387 5388 5388 5387 5387 5387 5386 5386 5385 5384 5383 5382 5380 5378 5376 5374 5372 5370 5367 5364 5361 5359
5357 5357 5358 5358 5358 5358 5358 5359 5359 5359 5358 5358 5359 5359 5361 5363 5366 5366 5367 5368 5370 5372 5374 5375 5377 5378 5380 5380 5381 5382 5382 5382 5383 5383 5382 5382 5381 5380 5380 5379 5378 5377 5375 5373 5371 5369 5366 5363 5360 5357 5354 5351 5348 5345
5343 5343 5344 5346 5346 5347 5349 5350 5351 5352 5352 5352 5352 5353 5355 5357 5359 5360 5361 5363 5365 5367 5369 5370 5371 5372 5374 5374 5375 5375 5376 5376 5376 5376 5376 5375 5374 5374 5373 5371 5370 5368 5366 5363 5360 5358 5354 5351 5347 5345 5342 5340 5338 5336
5330 5329 5328 5329 5330 5332 5336 5335 5338 5339 5341 5342 5344 5346 5347 5349 5350 5352 5353 5355 5357 5359 5361 5362 5363 5365 5366 5367 5367 5368 5368 5368 5368 5368 5368 5367 5366 5364 5363 5361 5359 5357 5354 5351 5348 5345 5341 5339 5337 5335 5333 5331 5329 5327
5318 5316 5315 5315 5315 5317 5317 5318 5321 5323 5326 5328 5331 5334 5336 5338 5340 5342 5344 5346 5348 5350 5352 5354 5355 5356 5357 5358 5358 5358 5359 5359 5358 5358 5357 5356 5355 5353 5351 5349 5347 5344 5341 5339 5336 5334 5332 5330 5328 5326 5324 5322 5320 5317
5306 5303 5301 5300 5300 5301 5302 5302 5303 5305 5308 5311 5315 5318 5321 5324 5327 5330 5333 5335 5337 5339 5341 5343 5344 5344 5345 5346 5347 5347 5347 5347 5347 5346 5345 5344 5343 5341 5339 5337 5335 5332 5331 5329 5327 5325 5323 5321 5319 5317 5315 5312 5310 5307
5294 5291 5288 5286 5284 5285 5286 5284 5286 5288 5291 5293 5297 5300 5303 5308 5311 5315 5318 5320 5323 5325 5327 5328 5328 5330 5331 5332 5333 5334 5334 5334 5334 5333 5332 5331 5330 5329 5327 5326 5324 5323 5322 5320 5318 5316 5315 5313 5311 5308 5305 5303 5300 5297